Location: Durmignat
(46.1852°N, 2.8873°E)
Time: 21:33:03
(UTC+00:00)

Daily predictions for brighter satellites

Satellite Brightness Start Highest point End
(mag) Time Altitude Azimuth Time Altitude Azimuth Time Altitude Azimuth
Cosmos 2173 Rocket 4.1 17:43:17 10° S 17:49:38 78° E 17:56:02 10° N
STARLINK-56 4.4 17:46:10 10° SSW 17:49:49 34° SE 17:53:29 10° ENE
STARLINK-73 4.4 17:47:49 10° SSW 17:51:29 35° SE 17:55:11 10° ENE
STARLINK-38 4.3 17:49:26 10° SSW 17:53:09 36° SE 17:56:52 10° ENE
STARLINK-1007 4.4 17:51:34 10° S 17:53:59 21° SE 17:56:25 10° E
STARLINK-65 4.3 17:51:02 10° SSW 17:54:45 37° SE 17:58:30 10° ENE
Cosmos 1633 2.5 17:51:19 10° S 17:54:51 63° E 17:58:25 10° NNE
Meteor 2-3 Rocket 4.3 17:49:53 10° SSW 17:55:25 63° WNW 18:01:02 10° N
CSL-04 Rocket 3.9 17:50:48 10° SE 17:56:08 50° ENE 18:01:25 10° N
STARLINK-53 4.2 17:52:43 10° SSW 17:56:29 40° SE 18:00:16 10° ENE
STARLINK-61 3.5 17:52:47 10° SW 17:56:39 66° SE 18:00:33 10° ENE
Cosmos 1238 Rocket 4.1 17:51:01 10° S 17:57:10 67° E 18:03:47 10° NNE
Abrixas rocket 4.1 17:57:36 10° W 18:00:07 25° SSW 18:02:37 10° SSE
Okean-O 3.1 17:56:20 10° S 18:00:44 67° WSW 18:05:11 10° NNW
STARLINK-48 3.9 17:58:58 10° WSW 18:02:49 57° NNW 18:06:40 10° NE
STARLINK-1010 4.2 18:00:56 10° SSW 18:03:33 25° SE 18:05:51 12° E
Cosmos 2278 Rocket 3.8 18:00:37 10° WSW 18:05:44 34° NW 18:10:54 10° NNE
USA 116 4.1 18:02:23 10° NNE 18:06:06 46° E 18:10:13 10° S
STARLINK-60 3.8 18:03:47 10° NW 18:06:53 36° NNE 18:09:30 13° E
NOSS 3-1 (C) 3.7 18:01:51 10° S 18:06:58 44° ESE 18:12:49 10° NE
Cosmos 2100 Rocket 4.4 18:01:28 10° SSW 18:07:49 74° W 18:14:10 10° N
Cosmos 1607 4.0 18:02:27 10° NW 18:08:47 78° NE 18:15:09 10° SE
CSL-04 Debris 4.2 18:03:36 10° SSE 18:08:58 65° ENE 18:14:24 10° N
Envisat 4.4 18:04:33 10° S 18:09:23 44° W 18:14:15 10° NNW
NOAA 11 4.1 18:04:24 10° SSE 18:09:49 71° ENE 18:15:15 10° N
deb Kosmos-1763 4.0 18:07:20 10° NNW 18:11:01 79° ENE 18:14:42 10° SSE
STARLINK-1008 3.9 18:08:45 10° SSW 18:11:36 31° SE 18:13:44 15° E
STARLINK-58 3.4 18:08:46 10° SW 18:12:15 59° SE 18:15:14 14° ENE
STARLINK-1016 3.9 18:09:47 10° SSW 18:12:37 31° SE 18:14:41 15° E
STARLINK-1025 3.9 18:10:54 10° SSW 18:13:46 32° SE 18:15:49 16° E
STARLINK-62 3.3 18:10:27 10° SW 18:13:56 62° SE 18:16:52 14° ENE
Cosmos 1777 Rocket 4.3 18:09:10 10° NNW 18:14:17 46° ENE 18:19:20 10° SE
STARLINK-1017 3.8 18:12:01 10° SSW 18:14:53 32° SE 18:16:51 16° E
STARLINK-34 3.3 18:12:01 10° SW 18:15:31 64° SE 18:18:24 15° ENE
Cosmos 1459 Rocket 4.4 18:10:56 10° SSW 18:16:57 68° W 18:23:01 10° N
Sich 1 2.9 18:12:52 10° S 18:17:08 76° E 18:21:26 10° NNE
STARLINK-1048 3.7 18:15:19 10° SSW 18:18:14 35° SE 18:20:08 18° E
Cosmos 1470 Rocket 4.5 18:14:41 10° SE 18:18:16 26° E 18:21:53 10° NNE
Cosmos 1805 Rocket 3.8 18:14:14 10° SSW 18:18:37 76° W 18:22:59 10° N
STARLINK-1029 4.1 18:16:01 10° SSW 18:18:44 26° SE 18:20:19 18° E
STARLINK-1028 3.7 18:16:21 10° SSW 18:19:18 36° SE 18:21:09 18° E
STARLINK-1049 3.7 18:16:27 10° SSW 18:19:23 36° SE 18:21:14 18° E
STARLINK-1021 3.6 18:17:32 10° SSW 18:20:30 37° SE 18:22:19 19° E
STARLINK-1051 3.6 18:17:35 10° SSW 18:20:33 37° SE 18:22:23 19° E
COSMO-SKYMED 1 3.0 18:16:17 10° N 18:20:38 66° WNW 18:24:55 10° SSW
STARLINK-1019 3.6 18:18:43 10° SSW 18:21:42 38° SE 18:23:29 20° E
STARLINK-1012 3.6 18:19:57 10° SSW 18:22:56 39° SE 18:24:41 20° E
Cosmos 1862 Rocket 3.9 18:20:16 10° N 18:24:21 39° ENE 18:28:25 10° SE
Cosmos 44 3.9 18:20:50 10° NNW 18:24:48 32° NE 18:27:29 18° E
STARLINK-1026 3.5 18:22:21 10° SSW 18:25:22 41° SE 18:27:03 22° E
STARLINK-1013 3.4 18:23:36 10° SW 18:26:37 42° SE 18:28:15 22° E
Cosmos 2061 Rocket 4.2 18:20:33 10° S 18:26:59 80° W 18:33:24 10° N
Cosmos 1707 Rocket 3.6 18:22:59 10° N 18:27:27 88° W 18:31:55 10° S
STARLINK-24 3.5 18:23:30 10° SW 18:27:29 68° SE 18:30:20 18° ENE
STARLINK-1009 3.4 18:24:48 10° SW 18:27:51 43° SE 18:29:27 23° E
STARLINK-1015 3.4 18:26:04 10° SW 18:29:07 44° SE 18:30:40 24° E
Cosmos 1943 Rocket 2.3 18:24:42 10° S 18:30:06 54° ESE 18:35:31 10° NE
Cosmos 1725 Rocket 4.0 18:24:50 10° S 18:31:00 87° E 18:37:15 10° N
HJ-1C 3.6 18:29:43 10° SSE 18:32:53 45° ENE 18:36:05 10° N
SJ-6B 4.1 18:34:18 19° ENE 18:34:18 19° ENE 18:36:45 10° NNE
Meteor 1-10 Rocket 4.5 18:28:52 10° NNW 18:34:30 73° W 18:40:01 10° S
STARLINK-81 3.5 18:31:51 10° SW 18:35:50 71° SSE 18:38:19 22° ENE
STARLINK-54 3.5 18:33:40 10° SW 18:37:41 79° SSE 18:40:09 23° ENE
SL-4 R/B 3.3 18:33:50 10° WNW 18:38:22 44° SW 18:42:38 10° SSE
STARLINK-77 3.5 18:35:08 10° SW 18:39:09 75° SSE 18:41:30 24° ENE
NOSS 2-3 (E) 4.4 18:35:39 10° S 18:39:25 30° ESE 18:41:17 23° ENE
SL-27 R/B 2.2 18:36:32 10° NNW 18:39:53 70° ENE 18:43:11 10° SSE
STARLINK-25 3.5 18:36:47 10° SW 18:40:48 77° SSE 18:43:05 25° ENE
Cosmos 1862 3.8 18:37:18 10° SSW 18:41:16 64° W 18:45:15 10° N
BREEZE-M DEB (TANK) 3.0 18:39:03 10° WNW 18:41:40 78° NNE 18:45:03 21° ESE
STARLINK-71 3.5 18:38:37 10° SW 18:42:38 86° SSE 18:44:56 25° ENE
ADEOS Rocket 3.5 18:34:56 10° NNE 18:42:42 74° ESE 18:50:25 10° S
Cosmos 1340 3.1 18:40:10 10° SSE 18:43:40 38° E 18:47:12 10° NNE
Cosmos 2285 Rocket 4.2 18:37:38 10° NNW 18:43:51 51° ENE 18:50:04 10° SE
STARLINK-79 3.4 18:40:05 10° SW 18:44:06 81° SSE 18:46:16 26° ENE
STARLINK-78 3.4 18:41:45 10° SW 18:45:46 84° SSE 18:47:52 27° ENE
Tsikada Rocket 4.2 18:40:28 10° N 18:46:50 78° W 18:53:14 10° S
BREEZE-M DEB (TANK) 3.2 18:44:31 10° WNW 18:46:56 41° N 18:47:39 32° NE
STARLINK-64 3.4 18:43:28 10° WSW 18:47:03 70° NNW 18:48:49 28° NE
STARLINK-57 3.5 18:43:28 10° WSW 18:47:29 89° SSE 18:49:34 28° ENE
H-2A R/B 2.4 18:43:17 10° SE 18:48:18 44° ENE 18:53:25 10° N
CRYOSAT 2 4.3 18:43:53 10° SSE 18:48:45 78° E 18:53:41 10° N
STARLINK-49 3.4 18:45:02 10° WSW 18:49:03 87° SSE 18:51:02 29° ENE
STARLINK-1027 4.4 18:45:15 10° SSW 18:49:06 34° SE 18:50:06 30° ESE
USA 234 4.1 18:45:38 18° ENE 18:49:48 37° N 18:55:42 10° NW
STARLINK-27 3.5 18:46:43 10° WSW 18:50:44 89° SSE 18:52:38 30° ENE
STARLINK-74 3.5 18:48:20 10° WSW 18:52:22 89° NNW 18:54:12 31° ENE
Ariane Rocket 2.9 18:47:43 10° SSE 18:52:46 68° ENE 18:57:52 10° N
Lacrosse 4 Rocket 3.0 18:48:59 10° WSW 18:52:50 34° NW 18:56:49 10° NNE
STARLINK-39 3.5 18:50:01 10° WSW 18:54:02 87° NNW 18:55:49 32° ENE
NOSS 2-3 (D) 4.1 18:50:12 10° S 18:54:09 38° ESE 18:55:25 31° E
Cosmos 921 Rocket 3.1 18:50:19 10° SSW 18:54:50 87° WNW 18:59:23 10° NNE
Okean 1-7 4.2 18:51:22 10° NNE 18:54:06 24° NE 18:54:06 24° NE
CZ-2D R/B 4.5 18:51:44 10° S 18:55:27 44° W 18:59:13 10° NNW
USA 229 DEB 3.6 18:49:05 10° SW 18:55:38 90° NW 19:02:34 10° NE
STARLINK-31 3.5 18:51:40 10° WSW 18:55:42 84° NNW 18:57:25 33° NE
USA 229 3.6 18:49:12 10° SW 18:55:45 90° ESE 19:02:40 10° NE
STARLINK-1033 4.4 18:53:30 10° SSW 18:57:11 31° SE 18:57:25 31° SE
STARLINK-69 3.6 18:53:29 10° WSW 18:57:31 78° NNW 18:59:12 34° NE
Cosmos 724 4.3 18:51:53 10° NNW 18:57:39 61° NE 19:00:59 25° ESE
Cosmos 1812 3.4 18:54:38 10° NNW 18:58:27 57° W 19:02:14 10° S
STARLINK-21 3.5 18:55:00 10° WSW 18:59:01 80° NNW 19:00:37 35° NE
CZ-2C R/B 3.5 18:54:04 13° SE 18:59:05 47° ENE 19:04:35 10° N
SJ 16-02 3.0 18:56:33 10° N 18:58:44 18° NE 18:58:44 18° NE
STARLINK-45 3.6 18:56:52 10° WSW 19:00:53 73° NNW 19:02:27 35° NE
Cosmos 1346 Rocket 2.9 18:57:43 10° S 19:01:36 51° E 19:05:28 10° NNE
STARLINK-70 3.6 18:58:26 10° WSW 19:02:27 74° NNW 19:03:57 37° NE
YAOGAN 1 4.4 18:58:46 10° SSW 19:02:42 34° W 19:06:39 10° NNW
NOSS 3-1 (A) 3.2 18:57:21 10° SSW 19:02:47 68° ESE 19:07:45 16° NE
STARLINK-76 3.6 18:59:57 10° WSW 19:03:59 75° NNW 19:05:23 39° NE
Cosmos 2369 Rocket 2.1 18:58:46 10° SSW 19:04:23 78° ESE 19:10:07 10° NNE
STARLINK-23 3.6 19:01:37 10° WSW 19:05:38 73° NNW 19:06:59 40° NE
MOS 1 4.2 19:00:24 10° SSE 19:06:00 67° ENE 19:11:37 10° N
STARLINK-33 3.9 19:03:17 10° W 19:06:25 41° NNW 19:07:07 35° NNE
Cosmos 1833 4.3 19:01:06 10° NNW 19:06:48 56° ENE 19:09:23 31° ESE
STARLINK-1024 4.2 19:03:17 10° SSW 19:07:02 37° SE 19:07:02 37° SE
STARLINK-32 3.6 19:03:18 10° WSW 19:07:18 72° NNW 19:08:35 41° NE
STARLINK-66 4.0 19:05:09 10° W 19:08:15 40° NNW 19:08:53 36° N
STARLINK-40 3.7 19:04:56 10° WSW 19:08:57 70° NNW 19:10:09 42° NE
STARLINK-55 4.0 19:06:12 10° W 19:09:18 39° NNW 19:09:53 35° N
Cosmos 1656 Rocket 3.9 19:04:23 10° S 19:09:30 41° ESE 19:10:50 35° ENE
STARLINK-44 3.7 19:06:35 10° WSW 19:10:36 69° NNW 19:11:44 44° NE
STARLINK-28 4.1 19:07:56 10° W 19:11:01 37° NNW 19:11:32 34° N
FALCON 9 DEB 3.3 19:08:05 10° NW 19:11:26 57° NNE 19:11:26 57° NNE
Cosmos 1633 Rocket 4.0 19:07:44 10° SSW 19:11:56 48° WNW 19:16:10 10° N
STARLINK-37 3.8 19:08:23 10° WSW 19:12:23 65° NNW 19:13:28 44° NE
STARLINK-36 3.7 19:09:55 10° WSW 19:13:55 66° NNW 19:14:56 46° NE
STARLINK-29 3.5 19:12:24 10° NW 19:15:27 51° N 19:15:27 51° N
STARLINK-68 3.9 19:11:48 10° WSW 19:15:47 61° NNW 19:16:45 45° NNE
Meteor 1-18 Rocket 4.5 19:10:25 10° N 19:16:10 49° ENE 19:17:55 38° ESE
Cosmos 1933 Rocket 3.4 19:12:02 10° S 19:16:26 76° E 19:20:51 10° NNE
STARLINK-1032 4.1 19:13:05 10° SSW 19:16:37 42° SSE 19:16:37 42° SSE
SL-08 RB Rocket 4.0 19:17:47 43° NE 19:17:47 43° NE 19:21:37 10° N
STARLINK-63 3.9 19:13:22 10° WSW 19:17:20 61° NNW 19:18:14 47° NNE
CZ-4 R/B 4.4 19:15:44 10° SW 19:18:38 18° W 19:21:33 10° NW
STARLINK-35 3.8 19:14:54 10° WSW 19:18:53 62° NNW 19:19:41 49° NNE
STARLINK-75 4.1 19:15:58 10° W 19:19:15 40° NNW 19:19:33 39° N
STARLINK-51 3.9 19:16:36 10° WSW 19:20:34 60° NNW 19:21:19 50° NNE
STARLINK-1023 3.6 19:17:57 10° WSW 19:20:26 51° W 19:20:26 51° W
STARLINK-1011 4.1 19:17:58 10° SW 19:21:21 44° S 19:21:21 44° S
STARLINK-30 3.9 19:18:15 10° WSW 19:22:13 59° NNW 19:22:53 51° NNE
Cosmos 2263 4.1 19:16:47 10° SSW 19:22:34 79° ESE 19:28:00 12° NNE
CENTAUR R/B 4.4 19:17:33 10° NW 19:23:16 23° NNE 19:26:39 18° NE
STARLINK 1040 4.2 19:20:33 10° WSW 19:22:31 36° WNW 19:22:31 36° WNW
STARLINK-72 3.9 19:19:55 10° WSW 19:23:53 58° NNW 19:24:29 51° NNE
Lacrosse 5 rocket 3.4 19:20:29 10° NW 19:23:58 21° N 19:25:18 19° NNE
STARLINK-22 4.0 19:20:44 10° W 19:24:02 43° NNW 19:24:04 43° NNW
STARLINK-41 4.1 19:22:14 10° W 19:25:30 40° NNW 19:25:30 40° NNW
STARLINK-42 4.3 19:22:29 10° W 19:25:21 35° NNW 19:25:21 35° NNW
STARLINK-50 3.9 19:21:34 10° WSW 19:25:32 57° NNW 19:26:04 52° N
STARLINK-52 4.0 19:22:37 10° NW 19:25:13 43° NNW 19:25:13 43° NNW
Aureole 2 Rocket 3.9 19:24:15 10° SW 19:25:47 26° WSW 19:25:47 26° WSW
STARLINK-1036 4.2 19:22:55 10° SW 19:26:11 45° S 19:26:11 45° S
STARLINK-59 4.0 19:23:21 10° WSW 19:27:18 54° NNW 19:27:46 50° N
NOSS 2-3 (C) 3.5 19:23:58 10° SSW 19:28:16 78° SE 19:29:03 61° ENE
STARLINK-56 4.0 19:24:53 10° WSW 19:28:51 55° NNW 19:29:14 52° N
SPOT 3 Rocket 3.5 19:28:41 55° ESE 19:29:24 61° ENE 19:34:33 10° N
STARLINK-1007 4.2 19:26:27 10° WSW 19:28:42 40° W 19:28:42 40° W
STARLINK-1014 3.8 19:26:55 10° WSW 19:29:41 53° W 19:29:41 53° W
STARLINK-73 4.0 19:26:34 10° WSW 19:30:31 54° NNW 19:30:50 52° N
ATLAS 3B R/B 4.5 19:26:19 10° NW 19:30:38 17° N 19:33:27 14° NE
STARLINK-1044 4.3 19:27:50 10° SW 19:30:57 44° SSW 19:30:57 44° SSW
STARLINK-38 4.0 19:28:15 10° W 19:32:11 53° NNW 19:32:26 52° N
MetOp-A 4.2 19:33:18 53° ENE 19:33:18 53° ENE 19:38:24 10° N
STARLINK-65 4.1 19:29:53 10° W 19:33:49 52° NNW 19:34:00 51° NNW
Meteor 1-20 Rocket 4.0 19:28:28 10° S 19:33:55 77° E 19:39:26 10° NNE
ARGOS Delta rocket 4.0 19:35:44 50° NNE 19:35:44 50° NNE 19:39:09 10° N
STARLINK-53 4.1 19:31:40 10° W 19:35:35 50° NNW 19:35:42 49° NNW
Cosmos 1072 Rocket 4.4 19:30:47 10° S 19:37:10 79° E 19:43:31 10° N
ARGOS 3.1 19:36:21 24° S 19:39:43 83° WSW 19:45:11 10° NNW
Resurs 01 Rocket 3.5 19:42:59 19° N 19:42:59 19° N 19:44:24 10° N
Cosmos 2242 Rocket 4.3 19:38:32 10° NNW 19:42:57 55° W 19:46:11 18° SSW
Cosmos 1932 4.4 19:36:59 10° NW 19:43:36 87° NE 19:45:23 52° SE
Cosmos 2297 Rocket 4.0 19:43:17 10° N 19:45:46 17° NNE 19:45:46 17° NNE
Meteor 2-11 Rocket 4.3 19:41:10 10° S 19:47:16 82° E 19:53:23 10° N
Cosmos 1513 Rocket 4.4 19:47:31 10° S 19:53:35 86° W 19:59:46 10° N
USA 267 3.4 19:57:58 53° SSE 19:57:58 53° SSE 20:03:41 10° SSW
NOSS 3-1 (C) 4.4 19:52:26 10° WSW 19:57:49 42° NW 20:02:17 18° NNE
Meteor 1-19 Rocket 4.1 19:52:30 10° N 19:58:13 80° NE 19:58:13 80° NE
Cosmos 1898 Rocket 3.9 19:54:08 10° NNW 19:58:05 51° N 19:58:05 51° N
Cosmos 2227 Rocket 4.1 20:00:58 10° N 20:03:09 18° NNE 20:03:09 18° NNE
Cosmos 44 4.3 20:01:57 10° NW 20:05:58 37° WSW 20:05:58 37° WSW
Cosmos 1943 Rocket 4.0 20:09:24 10° WSW 20:14:09 28° NW 20:18:55 10° N
Meteor 2-4 Rocket 4.5 20:08:51 10° N 20:12:50 44° N 20:12:50 44° N
H-2A R/B 3.9 20:23:18 10° SSW 20:27:51 29° W 20:32:31 10° NW
USA 234 3.5 20:32:59 62° N 20:32:59 62° N 20:38:42 10° NW
Nadezhda 4 Rocket 4.3 20:26:47 10° NNW 20:32:58 61° W 20:33:03 61° W
Timation 2 Rocket 4.3 20:29:26 10° NNW 20:35:37 71° WNW 20:35:37 71° WNW
SJ 16-02 3.8 20:34:24 10° NNW 20:35:45 19° NW 20:35:45 19° NW
Cosmos 2369 Rocket 4.4 20:44:48 10° W 20:49:06 22° NW 20:53:27 10° N
CENTAUR R/B 4.0 21:08:34 10° NW 21:13:50 38° N 21:13:50 38° N
ATLAS 3B R/B 4.4 21:17:35 10° NNW 21:20:42 24° N 21:20:42 24° N
